When you browse on this site, cookies collect data to enhance your experience and personalize the content and advertising you see.
Visit our Privacy Policy to learn more. By continuing to use the site, you agree to this use of cookies and data.
  • In Sweden
  • List of Countries
  • For 7 days
  • Water Temperature
  • Satellite Maps
  • Weather Map
  • Weather Widgets
  • user-avatar
    Login

    Hourly Weather Clovis

    Today, 23 May, Thursday

    Time Temperature Precipitation Wind Pressure Humidity
    00:00 +13°C° 0 mm 3 mps 746 mmHg 73%
    01:00 +13°C° 0 mm 4 mps 746 mmHg 74%
    02:00 +12°C° 0 mm 3 mps 746 mmHg 76%
    03:00 +12°C° 0 mm 3 mps 746 mmHg 78%
    04:00 +12°C° 0 mm 3 mps 746 mmHg 80%
    05:00 +12°C° 0 mm 3 mps 746 mmHg 77%
    06:00 +13°C° 0 mm 3 mps 746 mmHg 74%
    07:00 +14°C° 0 mm 3 mps 746 mmHg 72%
    08:00 +16°C° 0 mm 3 mps 746 mmHg 66%
    09:00 +18°C° 0 mm 3 mps 746 mmHg 61%
    10:00 +19°C° 0 mm 3 mps 747 mmHg 55%
    11:00 +20°C° 0.1 mm 3 mps 747 mmHg 53%
    12:00 +21°C° 0.1 mm 2 mps 747 mmHg 51%
    13:00 +23°C° 0.1 mm 2 mps 747 mmHg 49%
    14:00 +23°C° 0.4 mm 2 mps 747 mmHg 49%
    15:00 +24°C° 0.4 mm 1 mps 747 mmHg 49%
    16:00 +24°C° 0.4 mm 1 mps 748 mmHg 49%
    17:00 +23°C° 0.1 mm 2 mps 748 mmHg 54%
    18:00 +20°C° 0.1 mm 2 mps 748 mmHg 59%
    19:00 +19°C° 0.1 mm 2 mps 749 mmHg 65%
    20:00 +18°C° 0 mm 2 mps 749 mmHg 67%
    21:00 +18°C° 0 mm 3 mps 750 mmHg 70%
    22:00 +17°C° 0 mm 3 mps 751 mmHg 73%
    23:00 +16°C° 0 mm 3 mps 751 mmHg 76%

    Tomorrow, 24 May, Friday

    Time Temperature Precipitation Wind Pressure Humidity
    00:00 +16°C° 0 mm 2 mps 751 mmHg 78%
    01:00 +15°C° 0 mm 2 mps 751 mmHg 80%
    02:00 +15°C° 0 mm 2 mps 751 mmHg 80%
    03:00 +15°C° 0 mm 2 mps 751 mmHg 80%
    04:00 +14°C° 0 mm 2 mps 751 mmHg 80%
    05:00 +15°C° 0 mm 2 mps 751 mmHg 77%
    06:00 +16°C° 0 mm 1 mps 751 mmHg 74%
    07:00 +18°C° 0 mm 1 mps 751 mmHg 70%
    08:00 +19°C° 0 mm 1 mps 751 mmHg 67%
    09:00 +21°C° 0 mm 1 mps 751 mmHg 63%
    10:00 +23°C° 0 mm 1 mps 751 mmHg 59%
    11:00 +24°C° 0 mm 1 mps 751 mmHg 55%
    12:00 +25°C° 0 mm 1 mps 751 mmHg 51%
    13:00 +26°C° 0 mm 1 mps 750 mmHg 46%
    14:00 +27°C° 0 mm 1 mps 750 mmHg 44%
    15:00 +27°C° 0 mm 1 mps 749 mmHg 42%
    16:00 +27°C° 0 mm 1 mps 749 mmHg 40%
    17:00 +26°C° 0 mm 1 mps 749 mmHg 45%
    18:00 +25°C° 0 mm 1 mps 749 mmHg 49%
    19:00 +24°C° 0 mm 1 mps 749 mmHg 53%
    20:00 +23°C° 0 mm 1 mps 749 mmHg 55%
    21:00 +22°C° 0 mm 1 mps 749 mmHg 57%
    22:00 +21°C° 0 mm 1 mps 749 mmHg 59%
    23:00 +21°C° 0 mm 1 mps 749 mmHg 61%

    Day after tomorrow, 25 May, Saturday

    Time Temperature Precipitation Wind Pressure Humidity
    00:00 +20°C° 0 mm 1 mps 749 mmHg 63%
    01:00 +20°C° 0 mm 1 mps 748 mmHg 65%
    02:00 +19°C° 0.1 mm 1 mps 748 mmHg 65%
    03:00 +19°C° 0.1 mm 1 mps 748 mmHg 66%
    04:00 +19°C° 0.1 mm 1 mps 748 mmHg 67%
    05:00 +19°C° 0.2 mm 1 mps 748 mmHg 64%
    06:00 +20°C° 0.2 mm 1 mps 748 mmHg 62%
    07:00 +21°C° 0.2 mm 1 mps 748 mmHg 60%
    08:00 +21°C° 0 mm 2 mps 748 mmHg 56%
    09:00 +24°C° 0 mm 2 mps 747 mmHg 53%
    10:00 +26°C° 0 mm 3 mps 747 mmHg 49%
    11:00 +27°C° 0.1 mm 3 mps 747 mmHg 47%
    12:00 +27°C° 0.1 mm 3 mps 747 mmHg 44%
    13:00 +28°C° 0.1 mm 3 mps 746 mmHg 41%
    14:00 +28°C° 0.1 mm 3 mps 746 mmHg 42%
    15:00 +28°C° 0.1 mm 3 mps 746 mmHg 42%
    16:00 +28°C° 0.1 mm 3 mps 745 mmHg 42%
    17:00 +26°C° 0 mm 3 mps 745 mmHg 44%
    18:00 +25°C° 0 mm 2 mps 746 mmHg 46%
    19:00 +23°C° 0 mm 2 mps 746 mmHg 48%
    20:00 +21°C° 0 mm 2 mps 746 mmHg 48%
    21:00 +20°C° 0 mm 2 mps 746 mmHg 48%
    22:00 +18°C° 0 mm 3 mps 746 mmHg 47%
    23:00 +17°C° 0 mm 3 mps 746 mmHg 49%

    26 May, Sunday

    Time Temperature Precipitation Wind Pressure Humidity
    00:00 +17°C° 0 mm 3 mps 746 mmHg 51%
    01:00 +16°C° 0 mm 3 mps 745 mmHg 52%
    02:00 +14°C° 0.2 mm 3 mps 745 mmHg 60%
    03:00 +15°C° 0.2 mm 2 mps 745 mmHg 67%
    04:00 +14°C° 0.2 mm 2 mps 745 mmHg 75%
    05:00 +14°C° 0.7 mm 2 mps 745 mmHg 78%
    06:00 +13°C° 0.7 mm 2 mps 745 mmHg 80%
    07:00 +13°C° 0.7 mm 2 mps 745 mmHg 83%
    08:00 +12°C° 3.6 mm 2 mps 746 mmHg 84%
    09:00 +12°C° 3.6 mm 2 mps 746 mmHg 86%
    10:00 +10°C° 3.6 mm 3 mps 746 mmHg 87%
    11:00 +13°C° 0.7 mm 2 mps 746 mmHg 78%
    12:00 +14°C° 0.7 mm 2 mps 746 mmHg 68%
    13:00 +16°C° 0.7 mm 1 mps 746 mmHg 59%
    14:00 +17°C° 0.3 mm 2 mps 746 mmHg 56%
    15:00 +17°C° 0.3 mm 2 mps 746 mmHg 54%
    16:00 +18°C° 0.3 mm 3 mps 747 mmHg 52%
    17:00 +17°C° 0.3 mm 2 mps 747 mmHg 57%
    18:00 +16°C° 0.3 mm 2 mps 747 mmHg 62%
    19:00 +15°C° 0.3 mm 2 mps 748 mmHg 68%
    20:00 +14°C° 0.1 mm 2 mps 748 mmHg 71%
    21:00 +13°C° 0.1 mm 2 mps 749 mmHg 74%
    22:00 +13°C° 0.1 mm 2 mps 749 mmHg 78%
    23:00 +12°C° 0 mm 1 mps 749 mmHg 79%

    27 May, Monday

    Time Temperature Precipitation Wind Pressure Humidity
    00:00 +12°C° 0 mm 1 mps 749 mmHg 80%
    01:00 +11°C° 0 mm 0 mps 749 mmHg 81%
    02:00 +10°C° 0 mm 0 mps 749 mmHg 82%
    03:00 +10°C° 0 mm 0 mps 750 mmHg 83%
    04:00 +10°C° 0 mm 0 mps 750 mmHg 84%
    05:00 +11°C° 0 mm 0 mps 750 mmHg 81%
    06:00 +12°C° 0 mm 1 mps 750 mmHg 78%
    07:00 +13°C° 0 mm 1 mps 751 mmHg 75%
    08:00 +15°C° 0 mm 1 mps 751 mmHg 70%
    09:00 +16°C° 0 mm 1 mps 751 mmHg 66%
    10:00 +19°C° 0 mm 1 mps 751 mmHg 61%
    11:00 +19°C° 0 mm 1 mps 751 mmHg 58%
    12:00 +20°C° 0 mm 1 mps 751 mmHg 55%
    13:00 +21°C° 0 mm 1 mps 751 mmHg 52%
    14:00 +21°C° 0 mm 2 mps 751 mmHg 51%
    15:00 +21°C° 0 mm 2 mps 750 mmHg 49%
    16:00 +23°C° 0 mm 2 mps 750 mmHg 47%
    17:00 +21°C° 0 mm 2 mps 751 mmHg 52%
    18:00 +20°C° 0 mm 2 mps 751 mmHg 57%
    19:00 +19°C° 0 mm 2 mps 751 mmHg 62%
    20:00 +19°C° 0 mm 1 mps 752 mmHg 66%
    21:00 +18°C° 0 mm 1 mps 752 mmHg 69%
    22:00 +16°C° 0 mm 1 mps 752 mmHg 73%
    23:00 +16°C° 0 mm 1 mps 752 mmHg 75%

    28 May, Tuesday

    Time Temperature Precipitation Wind Pressure Humidity
    00:00 +14°C° 0 mm 0 mps 752 mmHg 78%
    01:00 +14°C° 0 mm 0 mps 752 mmHg 81%
    02:00 +13°C° 0 mm 0 mps 752 mmHg 83%
    03:00 +13°C° 0 mm 0 mps 752 mmHg 85%
    04:00 +12°C° 0 mm 0 mps 752 mmHg 87%
    05:00 +13°C° 0 mm 0 mps 752 mmHg 84%
    06:00 +15°C° 0 mm 1 mps 752 mmHg 80%
    07:00 +16°C° 0 mm 1 mps 752 mmHg 77%
    08:00 +19°C° 0 mm 1 mps 752 mmHg 71%
    09:00 +21°C° 0 mm 1 mps 752 mmHg 65%
    10:00 +21°C° 0 mm 2 mps 752 mmHg 60%
    11:00 +24°C° 0 mm 2 mps 752 mmHg 55%
    12:00 +25°C° 0 mm 2 mps 751 mmHg 51%
    13:00 +27°C° 0 mm 3 mps 751 mmHg 46%
    14:00 +27°C° 0 mm 3 mps 751 mmHg 45%
    15:00 +28°C° 0 mm 3 mps 750 mmHg 43%
    16:00 +29°C° 0 mm 3 mps 750 mmHg 42%
    17:00 +27°C° 0 mm 2 mps 750 mmHg 47%
    18:00 +26°C° 0 mm 2 mps 750 mmHg 52%
    19:00 +25°C° 0 mm 2 mps 751 mmHg 57%
    20:00 +24°C° 0 mm 2 mps 751 mmHg 60%
    21:00 +23°C° 0 mm 2 mps 751 mmHg 62%
    22:00 +21°C° 0 mm 3 mps 752 mmHg 65%
    23:00 +20°C° 0 mm 3 mps 751 mmHg 65%
    Show more